Location: Nag� el Ma?a??a
(24.0667°N, 32.8833°E)
Time: 15:46:54
(UTC+00:00)

METEOR-M - Pass Details

Date: 25 September 2021
Orbit: 816 x 819 km, 98.5° (Epoch: 16 October)

Event Time Altitude Azimuth Distance (km) Brightness Sun altitude
Rises 01:37:13 0° 16° (NNE) 3,345 7.7 -28.2°
Reaches altitude 10° 01:39:35 10° 19° (NNE) 2,410 6.9 -27.7°
Maximum altitude 01:44:53 65° 101° (ESE) 892 4.4 -26.5°
Enters shadow 01:48:42 19° 180° (S) 1,847 5.8 -25.7°
